Weather History for Wheeler AAF, HI

Change the Weather History Date:

Tuesday, September 17, 2013

  Actual Average Record
Temperature  
Mean Temperature 76 °F -  
Max Temperature 81 °F 82 °F 87 °F (2002)
Min Temperature 71 °F 68 °F 64 °F (2012)
Cooling Degree Days 11    
Growing Degree Days 26 (Base 50)    
Moisture  
Dew Point 68 °F    
Average Humidity 81    
Maximum Humidity 89    
Minimum Humidity 60    
Precipitation  
Precipitation 0.17 in - - ()
Sea Level Pressure  
Sea Level Pressure 30.03 in    
Wind  
Wind Speed 7 mph (NE)    
Max Wind Speed 14 mph    
Max Gust Speed 20 mph    
Visibility 9 miles    
Events Rain    
Averages and records for this station are not official NWS values.
T = Trace of Precipitation, MM = Missing Value Source: NWS Daily Summary

Daily Weather History Graph

Daily Weather History Graph

Search for Another Location

Airport:

Trip Planner

Search our weather history database for the weather conditions in past years. The results will help you decide how hot, cold, wet, or windy it might be!

Date:

Astronomy

Sep. 17, 2013 Rise Set
Actual Time 6:19 AM HST 6:32 PM HST
Civil Twilight 5:57 AM HST 6:55 PM HST
Nautical Twilight 5:31 AM HST 7:20 PM HST
Astronomical Twilight 5:05 AM HST 7:46 PM HST
Moon 5:22 PM HST (9/17) 4:36 AM HST (9/17)
Length of Visible Light 12h 57m
Length of Day
12h 13m
Waxing Gibbous, 97% of the Moon is Illuminated
Sep 17
Waxing Gibbous
Sep 19
Full
Sep 26
Last Quarter
Oct 4
New
Oct 11
First Quarter

Hourly Weather History & Observations

Time (HST) Temp. Heat Index Dew Point Humidity Pressure Visibility Wind Dir Wind Speed Gust Speed Precip Events Conditions
12:14 AM 71.6 °F - 68.0 °F 88% 30.07 in 10.0 mi WNW 4.6 mph - N/A   Light Drizzle
12:24 AM 71.6 °F - 68.0 °F 88% 30.07 in 10.0 mi NW 4.6 mph - N/A   Mostly Cloudy
12:26 AM 71.6 °F - 68.0 °F 88% 30.07 in 10.0 mi NNW 4.6 mph - N/A   Light Drizzle
12:36 AM 71.6 °F - 68.0 °F 88% 30.06 in 10.0 mi NW 6.9 mph - N/A   Scattered Clouds
12:52 AM 71.6 °F - 68.0 °F 88% 30.06 in 10.0 mi West 5.8 mph - N/A   Light Drizzle
12:58 AM 71.6 °F - 68.4 °F 89% 30.03 in 10.0 mi WNW 3.5 mph - 0.00 in   Light Drizzle
1:01 AM 71.6 °F - 68.0 °F 88% 30.06 in 10.0 mi NW 5.8 mph - N/A   Scattered Clouds
1:58 AM 73.6 °F - 67.5 °F 81% 30.01 in 10.0 mi North 5.8 mph - 0.00 in   Partly Cloudy
2:58 AM 73.8 °F - 67.1 °F 80% 29.99 in 10.0 mi NNE 5.8 mph - N/A   Scattered Clouds
3:58 AM 73.8 °F - 67.1 °F 80% 29.98 in 10.0 mi Variable 2.3 mph - N/A   Partly Cloudy
4:58 AM 73.6 °F - 66.7 °F 79% 29.97 in 10.0 mi ENE 4.6 mph - N/A   Scattered Clouds
5:58 AM 73.6 °F - 66.9 °F 80% 29.98 in 10.0 mi NNE 2.3 mph - N/A   Partly Cloudy
6:58 AM 73.8 °F - 67.1 °F 80% 29.99 in 10.0 mi ENE 5.8 mph - N/A   Scattered Clouds
7:48 AM 75.2 °F - 66.2 °F 73% 30.04 in 10.0 mi NE 12.7 mph - N/A   Mostly Cloudy
7:58 AM 74.7 °F - 66.9 °F 77% 30.01 in 10.0 mi NNE 5.8 mph - N/A   Mostly Cloudy
8:19 AM 75.2 °F - 68.0 °F 78% 30.05 in 9.0 mi East 10.4 mph - N/A   Light Drizzle
8:32 AM 75.2 °F - 69.8 °F 83% 30.06 in 10.0 mi East 6.9 mph - N/A   Mostly Cloudy
8:42 AM 73.4 °F - 69.8 °F 88% 30.06 in 10.0 mi East 10.4 mph - N/A   Light Drizzle
8:58 AM 73.4 °F - 68.9 °F 86% 30.03 in 7.0 mi ENE 8.1 mph - 0.00 in Rain Light Rain
9:06 AM 73.4 °F - 69.8 °F 88% 30.05 in 10.0 mi ENE 5.8 mph - N/A   Partly Cloudy
9:19 AM 73.4 °F - 69.8 °F 88% 30.06 in 10.0 mi East 8.1 mph - N/A Rain Light Rain
9:49 AM 73.4 °F - 69.8 °F 88% 30.07 in 2.5 mi East 4.6 mph - N/A Rain Heavy Rain
9:54 AM 73.4 °F - 69.8 °F 88% 30.08 in 1.8 mi ENE 4.6 mph - N/A Rain Heavy Rain
9:58 AM 72.9 °F - 69.3 °F 88% 30.06 in 2.0 mi East 6.9 mph - 0.11 in Rain Light Rain
10:03 AM 73.4 °F - 69.8 °F 88% 30.08 in 4.0 mi NE 11.5 mph - N/A Rain Light Rain
10:27 AM 73.4 °F - 69.8 °F 88% 30.07 in 10.0 mi ENE 13.8 mph - N/A   Scattered Clouds
10:34 AM 73.4 °F - 69.8 °F 88% 30.07 in 9.0 mi NE 9.2 mph - N/A   Light Drizzle
10:58 AM 73.4 °F - 70.0 °F 89% 30.04 in 8.0 mi NE 11.5 mph - 0.05 in Rain Light Rain
11:03 AM 73.4 °F - 69.8 °F 88% 30.07 in 7.0 mi ENE 11.5 mph - N/A Rain Rain
11:08 AM 73.4 °F - 69.8 °F 88% 30.06 in 7.0 mi NE 9.2 mph - N/A Rain Light Rain
11:09 AM 73.4 °F - 69.8 °F 88% 30.06 in 8.0 mi NE 9.2 mph - N/A   Mostly Cloudy
11:58 AM 78.3 °F - 69.8 °F 75% 30.02 in 10.0 mi East 10.4 mph - 0.00 in   Partly Cloudy
12:21 PM 77.0 °F - 68.0 °F 74% 30.05 in 9.0 mi East 9.2 mph - N/A Rain Light Rain
12:33 PM 75.2 °F - 69.8 °F 83% 30.05 in 9.0 mi East 8.1 mph - N/A   Mostly Cloudy
12:38 PM 75.2 °F - 69.8 °F 83% 30.05 in 10.0 mi East 8.1 mph - N/A   Mostly Cloudy
12:43 PM 77.0 °F - 69.8 °F 78% 30.04 in 10.0 mi East 9.2 mph - N/A   Mostly Cloudy
12:48 PM 78.8 °F - 71.6 °F 78% 30.04 in 10.0 mi East 10.4 mph - N/A   Scattered Clouds
12:58 PM 78.1 °F - 70.5 °F 77% 30.00 in 10.0 mi ENE 12.7 mph - 0.01 in   Partly Cloudy
1:58 PM 80.8 °F 83.6 °F 68.4 °F 66% 29.99 in 10.0 mi East 10.4 mph 19.6 mph N/A   Partly Cloudy
2:58 PM 81.9 °F 84.2 °F 66.7 °F 60% 29.96 in 10.0 mi East 12.7 mph - N/A   Scattered Clouds
3:44 PM 78.8 °F - 68.0 °F 69% 30.00 in 9.0 mi ENE 11.5 mph - N/A Rain Light Rain
3:58 PM 77.2 °F - 68.0 °F 73% 29.98 in 8.0 mi East 9.2 mph - 0.00 in Rain Light Rain
4:14 PM 75.2 °F - 68.0 °F 78% 30.00 in 10.0 mi East 8.1 mph - N/A   Partly Cloudy
4:21 PM 77.0 °F - 68.0 °F 74% 30.00 in 10.0 mi ENE 6.9 mph - N/A   Light Drizzle
4:30 PM 77.0 °F - 68.0 °F 74% 30.00 in 10.0 mi East 5.8 mph - N/A   Partly Cloudy
4:58 PM 77.4 °F - 67.1 °F 71% 29.98 in 10.0 mi East 3.5 mph - 0.00 in   Mostly Cloudy
5:14 PM 78.8 °F - 68.0 °F 69% 30.00 in 9.0 mi East 10.4 mph - N/A Rain Light Rain
5:28 PM 75.2 °F - 68.0 °F 78% 30.00 in 10.0 mi East 5.8 mph - N/A   Scattered Clouds
5:58 PM 75.7 °F - 67.5 °F 75% 29.97 in 10.0 mi East 10.4 mph - 0.00 in   Partly Cloudy
6:35 PM 75.2 °F - 68.0 °F 78% 30.00 in 10.0 mi ENE 8.1 mph - N/A   Light Drizzle
6:44 PM 75.2 °F - 68.0 °F 78% 30.00 in 10.0 mi ENE 8.1 mph - N/A   Partly Cloudy
6:58 PM 74.3 °F - 67.1 °F 78% 29.98 in 10.0 mi ENE 5.8 mph - 0.00 in   Partly Cloudy
7:05 PM 73.4 °F - 68.0 °F 83% 30.01 in 10.0 mi ENE 5.8 mph - N/A   Light Drizzle
7:15 PM 73.4 °F - 68.0 °F 83% 30.01 in 10.0 mi ENE 5.8 mph - N/A   Clear
7:58 PM 74.8 °F - 66.2 °F 74% 29.99 in 10.0 mi ENE 10.4 mph - 0.00 in   Clear
8:58 PM 72.5 °F - 66.6 °F 82% 30.01 in 10.0 mi Variable 2.3 mph - N/A   Partly Cloudy
9:31 PM 71.6 °F - 66.2 °F 83% 30.04 in 10.0 mi Variable 3.5 mph - N/A   Light Drizzle
9:47 PM 73.4 °F - 66.2 °F 78% 30.04 in 10.0 mi WNW 3.5 mph - N/A   Scattered Clouds
9:58 PM 73.9 °F - 66.4 °F 77% 30.01 in 10.0 mi Variable 2.3 mph - 0.00 in   Scattered Clouds
10:01 PM 73.4 °F - 66.2 °F 78% 30.04 in 10.0 mi Variable 3.5 mph - N/A   Light Drizzle
10:12 PM 73.4 °F - 66.2 °F 78% 30.04 in 10.0 mi WNW 3.5 mph - N/A   Scattered Clouds
10:13 PM 73.4 °F - 66.2 °F 78% 30.04 in 10.0 mi West 4.6 mph - N/A   Light Drizzle
10:28 PM 73.4 °F - 66.2 °F 78% 30.04 in 10.0 mi Variable 3.5 mph - N/A   Scattered Clouds
10:58 PM 72.7 °F - 66.7 °F 82% 30.01 in 10.0 mi NNE 2.3 mph - 0.00 in   Partly Cloudy
11:58 PM 73.2 °F - 66.4 °F 79% 30.00 in 10.0 mi ENE 4.6 mph - N/A   Clear
11:59 PM 73.4 °F - 66.2 °F 78% 30.03 in 10.0 mi ENE 4.6 mph - N/A   Drizzle